Weather History for Abbotsford, BC

Change the Weather History Date:

Monday, March 10, 2014

  Actual Average Record
Temperature  
Mean Temperature 48 °F -  
Max Temperature 54 °F 54 °F 68 °F (2005)
Min Temperature 41 °F 36 °F 19 °F (2009)
Degree Days  
Heating Degree Days 18    
Moisture  
Dew Point 39 °F    
Average Humidity 80    
Maximum Humidity 93    
Minimum Humidity 43    
Precipitation  
Precipitation 0.00 in 0.18 in - ()
Sea Level Pressure  
Sea Level Pressure 30.14 in    
Wind  
Wind Speed 5 mph ()    
Max Wind Speed 14 mph    
Max Gust Speed 18 mph    
Visibility 13.9 miles    
Events      
Averages and records for this station are not official NWS values.
T = Trace of Precipitation, MM = Missing Value Source: Averaged Metar Reports

Daily Weather History Graph

Daily Weather History Graph

Search for Another Location

Airport:

Trip Planner

Search our weather history database for the weather conditions in past years. The results will help you decide how hot, cold, wet, or windy it might be!

Date:

Astronomy

Mar. 10, 2014 Rise Set
Actual Time 7:33 AM PDT 7:07 PM PDT
Civil Twilight 7:01 AM PDT 7:38 PM PDT
Nautical Twilight 6:24 AM PDT 8:15 PM PDT
Astronomical Twilight 5:47 AM PDT 8:53 PM PDT
Moon 1:35 PM PDT (3/10) 4:09 AM PDT (3/10)
Length of Visible Light 12h 37m
Length of Day
11h 34m
Waxing Gibbous, 71% of the Moon is Illuminated
Mar 10
Waxing Gibbous
Mar 16
Full
Mar 23
Last Quarter
Mar 30
New
Apr 7
First Quarter

Hourly Weather History & Observations

Time (PDT) Temp. Windchill Dew Point Humidity Pressure Visibility Wind Dir Wind Speed Gust Speed Precip Events Conditions
12:00 AM 42.8 °F - 39.2 °F 87% 29.97 in 15.0 mi NNE 2.3 mph - N/A   Overcast
1:00 AM 42.8 °F 40.1 °F 39.2 °F 87% 29.97 in 15.0 mi North 4.6 mph - N/A   Mostly Cloudy
2:00 AM 42.8 °F 39.3 °F 39.2 °F 87% 29.97 in 15.0 mi NNE 5.8 mph - N/A   Overcast
3:00 AM 42.8 °F 40.1 °F 39.2 °F 87% 29.97 in 15.0 mi NNE 4.6 mph - N/A   Overcast
4:00 AM 41.0 °F 39.0 °F 39.2 °F 93% 29.97 in 10.0 mi NNE 3.5 mph - N/A   Overcast
5:00 AM 42 °F - 39 °F 86% 29.98 in 15 mi North 3.5 mph - -   Overcast
5:00 AM 41.0 °F 39.0 °F 39.2 °F 93% 29.98 in 15.0 mi North 3.5 mph - N/A   Overcast
6:00 AM 42.8 °F 41.1 °F 39.2 °F 87% 30.00 in 15.0 mi NNE 3.5 mph - N/A   Overcast
7:00 AM 42.8 °F - 39.2 °F 87% 30.02 in 10.0 mi Variable 2.3 mph - N/A   Overcast
8:00 AM 42.8 °F - 39.2 °F 87% 30.04 in 15.0 mi Calm Calm - N/A   Overcast
8:20 AM 42.8 °F 41.1 °F 41.0 °F 93% 30.04 in 15.0 mi South 3.5 mph - N/A   Overcast
9:00 AM 42.8 °F - 39.2 °F 87% 30.06 in 15.0 mi South 2.3 mph - N/A   Mostly Cloudy
10:00 AM 44.6 °F 40.7 °F 41.0 °F 87% 30.09 in 15.0 mi SSW 6.9 mph - N/A   Overcast
11:00 AM 45 °F - 43 °F 88% 30.11 in 10 mi SSW 8.1 mph - -   Overcast
11:00 AM 44.6 °F 40.2 °F 42.8 °F 93% 30.11 in 10.0 mi SSW 8.1 mph - N/A   Overcast
12:00 PM 46.4 °F 41.9 °F 42.8 °F 87% 30.13 in 10.0 mi SW 9.2 mph - N/A   Overcast
1:00 PM 48.2 °F - 41.0 °F 76% 30.15 in 15.0 mi SSW 11.5 mph - N/A   Mostly Cloudy
2:00 PM 50.0 °F - 41.0 °F 71% 30.17 in 25.0 mi SSW 13.8 mph - N/A   Mostly Cloudy
3:00 PM 51.8 °F - 41.0 °F 67% 30.18 in 25.0 mi SSW 12.7 mph - N/A   Mostly Cloudy
4:00 PM 53.6 °F - 39.2 °F 58% 30.20 in 30.0 mi SW 12.7 mph - N/A   Mostly Cloudy
5:00 PM 53 °F - 37 °F 43% 30.22 in 28 mi SSW 12.7 mph - -   Partly Cloudy
5:00 PM 53.6 °F - 37.4 °F 54% 30.22 in 30.0 mi SSW 10.4 mph 18.4 mph N/A   Scattered Clouds
6:00 PM 51.8 °F - 35.6 °F 54% 30.25 in 30.0 mi SW 12.7 mph - N/A   Scattered Clouds
7:00 PM 46.4 °F 41.5 °F 37.4 °F 71% 30.27 in 30.0 mi SSW 10.4 mph - N/A   Scattered Clouds
8:00 PM 42.8 °F 38.6 °F 37.4 °F 81% 30.31 in 15.0 mi SSE 6.9 mph - N/A   Partly Cloudy
9:00 PM 42.8 °F 41.1 °F 35.6 °F 76% 30.34 in 15.0 mi ESE 3.5 mph - N/A   Partly Cloudy
10:00 PM 41.0 °F 38.0 °F 37.4 °F 87% 30.37 in 15.0 mi WNW 4.6 mph - N/A   Mostly Cloudy
11:00 PM 41 °F - 36 °F 78% 30.42 in 15 mi SW 2.3 mph - -   Mostly Cloudy
11:00 PM 41.0 °F - 37.4 °F 87% 30.41 in 15.0 mi Calm Calm - N/A   Mostly Cloudy